Location: Saint-Palais-sur-Mer
(45.6429°N, 1.0859°W)
Time: 18:14:55
(UTC+02:00)

BlueWalker 3 - Pass Details

Date: 12 May 2026
Orbit: 447 x 457 km, 53.2° (Epoch: 5 June)

Event Time Altitude Azimuth Distance (km) Brightness Sun altitude
Exits shadow 05:02:08 11° 282° (WNW) 1,537 4.1 -14.2°
Maximum altitude 05:05:12 30° 345° (NNW) 839 3.4 -13.8°
Drops below altitude 10° 05:08:22 10° 48° (NE) 1,579 5.9 -13.4°
Sets 05:10:41 0° 60° (ENE) 2,453 7.1 -13.1°
